Weather History for St. Kitts, Saint Kitts and Nevis

Change the Weather History Date:

Thursday, October 31, 2013

  Actual Average Record
Temperature  
Mean Temperature 83 °F -  
Max Temperature 87 °F 83 °F 89 °F (2014)
Min Temperature 79 °F 75 °F 74 °F (2014)
Cooling Degree Days 18    
Growing Degree Days 33 (Base 50)    
Moisture  
Dew Point 75 °F    
Average Humidity 77    
Maximum Humidity 89    
Minimum Humidity 61    
Precipitation  
Precipitation 0.00 in - - ()
Sea Level Pressure  
Sea Level Pressure 29.88 in    
Wind  
Wind Speed 9 mph ()    
Max Wind Speed 16 mph    
Max Gust Speed -    
Visibility 7.5 miles    
Events Rain    
Averages and records for this station are not official NWS values.
T = Trace of Precipitation, MM = Missing Value Source: Averaged Metar Reports

Daily Weather History Graph

Daily Weather History Graph

Search for Another Location

Airport:

Trip Planner

Search our weather history database for the weather conditions in past years. The results will help you decide how hot, cold, wet, or windy it might be!

Date:

Astronomy

Oct. 31, 2013 Rise Set
Actual Time 6:08 AM AST 5:39 PM AST
Civil Twilight 5:46 AM AST 6:01 PM AST
Nautical Twilight 5:20 AM AST 6:27 PM AST
Astronomical Twilight 4:55 AM AST 6:53 PM AST
Moon 3:19 AM AST (10/31) 3:33 PM AST (10/31)
Length of Visible Light 12h 15m
Length of Day
11h 30m
Waning Crescent, 10% of the Moon is Illuminated
Oct 31
Waning Crescent
Nov 3
New
Nov 10
First Quarter
Nov 17
Full
Nov 25
Last Quarter

Hourly Weather History & Observations

Time (AST) Temp. Heat Index Dew Point Humidity Pressure Visibility Wind Dir Wind Speed Gust Speed Precip Events Conditions
6:00 AM 80.6 °F 86.2 °F 75.2 °F 84% 29.86 in 6.2 mi NNE 6.9 mph - N/A   Partly Cloudy
7:00 AM 80.6 °F 86.2 °F 75.2 °F 84% 29.89 in 6.2 mi NNE 10.4 mph - N/A   Partly Cloudy
8:00 AM 82 °F - 75 °F 74% 29.92 in 22 mi NE 9.2 mph - -   Partly Cloudy
8:00 AM 82.4 °F 89.5 °F 75.2 °F 79% 29.92 in 6.2 mi NE 9.2 mph - N/A   Partly Cloudy
9:00 AM 82.4 °F 89.5 °F 75.2 °F 79% 29.92 in 6.2 mi NE 10.4 mph - N/A   Partly Cloudy
10:00 AM 86.0 °F 95.1 °F 75.2 °F 70% 29.95 in 6.2 mi NE 13.8 mph - N/A   Partly Cloudy
11:00 AM 87 °F - 75 °F 61% 29.94 in 19 mi NE 15.0 mph - -   Scattered Clouds
11:00 AM 87.8 °F 97.6 °F 75.2 °F 66% 29.92 in 6.2 mi NE 15.0 mph - N/A   Partly Cloudy
12:00 PM 84.2 °F 94.1 °F 77.0 °F 79% 29.89 in 6.2 mi NNE 15.0 mph - N/A   Scattered Clouds
1:00 PM 84.2 °F 92.3 °F 75.2 °F 74% 29.86 in 6.2 mi NE 16.1 mph - N/A   Scattered Clouds
2:00 PM 83 °F - 72 °F 62% 29.86 in 22 mi NE 10.4 mph - -   Mostly Cloudy
2:00 PM 82.4 °F 87.2 °F 71.6 °F 70% 29.86 in 6.2 mi NE 10.4 mph - N/A   Scattered Clouds
3:00 PM 82.4 °F 88.2 °F 73.4 °F 74% 29.83 in 6.2 mi ENE 15.0 mph - N/A   Scattered Clouds
4:00 PM 82.4 °F 89.5 °F 75.2 °F 79% 29.83 in 6.2 mi East 13.8 mph - N/A   Scattered Clouds
5:00 PM 81 °F - 74 °F 75% 29.86 in 22 mi ENE 11.5 mph - -   Overcast
5:00 PM 80.6 °F 86.2 °F 75.2 °F 84% 29.86 in 6.2 mi ENE 11.5 mph - N/A   Mostly Cloudy
6:00 PM 80.6 °F 85.4 °F 73.4 °F 79% 29.86 in 6.2 mi ENE 9.2 mph - N/A   Mostly Cloudy
7:00 PM 80.6 °F 86.2 °F 75.2 °F 84% 29.86 in 6.2 mi East 5.8 mph - N/A Rain Light Rain Showers
8:00 PM 81 °F - 75 °F 77% 29.89 in 17 mi 2.3 mph - - Rain Light Rain Showers
8:00 PM 80.6 °F 86.2 °F 75.2 °F 84% 29.89 in 6.2 mi Variable 2.3 mph - N/A   Mostly Cloudy
9:00 PM 80.6 °F 87.1 °F 77.0 °F 89% 29.89 in 6.2 mi East 6.9 mph - N/A   Mostly Cloudy